Location: ????????
(55.3155°N, 39.2900°E)
Time: 17:50:59
(UTC+00:00)

Cosmos 1536 - Pass Details

Date: 14 April 2024
Orbit: 514 x 542 km, 82.6° (Epoch: 23 May)

Event Time Altitude Azimuth Distance (km) Brightness Sun altitude
Rises 00:29:23 0° 343° (NNW) 2,684 6.7 -14.5°
Reaches altitude 10° 00:31:39 10° 335° (NNW) 1,783 5.6 -14.2°
Maximum altitude 00:35:16 37° 267° (W) 828 3.3 -13.8°
Enters shadow 00:37:06 23° 216° (SW) 1,150 3.9 -13.6°
